sat.trackr.live / text

‹ back to catalog

REIMEI (INDEX)

NORAD 28810 · 2005-031B

PAYLOAD ACTIVE UNKNOWN

§ Identity

Operator
Country
JPN
Launch date
2005-08-23
Launch site
TYMSC
Launch vehicle
Mass (kg)
RCS (m²)
0.57

External: N2YO · Heavens-Above · Gunter

§ Orbital elements

Epoch: 2026-09-19T14:34:17.292576Z

Period
95.26 min
Inclination
98.0253°
Eccentricity
0.0019922
Mean motion
15.11674242 rev/d
Perigee alt
517.3 km
Apogee alt
544.9 km
Semi-major
6,909.2 km
B*
1.8623e-4
RAAN
31.1833°
Arg perigee
147.9013°
Mean anomaly
212.3433°
Rev number
14,525

§ Raw data

REIMEI (INDEX)1 28810U 05031B   26262.60714459  .00003110  00000+0  18623-3 0  99992 28810  98.0253  31.1833 0019922 147.9013 212.3433 15.11674242145253

JSON: /api/v1/satellites/28810 · /tle

For live sub-satellite position, see the globe view (requires WebGL).

§ Visibility from observer

Set your observer location to see the next 7 days of passes ≥ 10°. The values pass through the URL so the page stays shareable.

No JS? Fill the form by hand. The geolocation button needs JavaScript.

§ Radio — SatNOGS DB

ModeDescriptionDownlinkUplink
FM S-Band Transmitter 2.264 GHz

1 transmitter · refreshed weekly from db.satnogs.org